Regional Weather Roundup
Issued by NWS Cleveland, OH

Home | Current Version | Previous Version | Graphics & Text | Print | Product List | Glossary On
Versions: 1 2 3 4 5 6 7 8 9 10 11 12 13 14 15 16 17 18 19 20 21 22 23 24 25 26 27 28 29 30 31 32 33 34 35 36 37 38 39 40 41 42 43 44 45 46 47 48 49 50
000
ASUS41 KCLE 211910
RWRCLE
OHIO REGIONAL WEATHER ROUNDUP
NATIONAL WEATHER SERVICE CLEVELAND, OH
300 PM EDT MON MAY 21 2018

NOTE: "FAIR" INDICATES FEW OR NO CLOUDS BELOW 12,000 FEET WITH NO
SIGNIFICANT WEATHER AND/OR OBSTRUCTIONS TO VISIBILITY.

OHZ001>008-015>018-024>027-034-035-043-044-212000-
   NORTHWEST OHIO

CITY           SKY/WX    TMP DP  RH WIND       PRES   REMARKS
DEFIANCE       LGT RAIN  68  59  73 E9        30.11F
FINDLAY        FAIR      77  61  57 E9        30.08F
TOLEDO EXPRESS FAIR      65  56  72 NE10G18   30.13F
TOLEDO EXEC    FAIR      63  53  70 NE12      30.14F
LIMA           FAIR      78  63  59 S10       30.08F
$$

OHZ009>014-019>023-028>033-038-089-212000-
   NORTHEAST OHIO

CITY           SKY/WX    TMP DP  RH WIND       PRES   REMARKS
CLE-HOPKINS    CLOUDY    67  55  65 N10       30.16F
CLE-LAKEFRONT  FAIR      59  52  77 NE15      30.14F
CUY CO. ARPT   PTSUNNY   77  55  47 CALM      30.15F
LORAIN-ELYRIA  FAIR      71  53  52 NE14G20   30.14F
ASHTABULA      FAIR      74  55  51 N7        30.16F
AKRON-CANTON   PTSUNNY   77  57  50 E9        30.14F
WOOSTER        FAIR      76  59  55 E8        30.14F
MANSFIELD      FAIR      76  59  55 MISG      30.13F
YOUNGSTOWN     PTSUNNY   77  56  48 VRB6      30.15F
$$

OHZ042-051>053-060>062-070>072-077>081-212000-
  SOUTHWEST OHIO

CITY           SKY/WX    TMP DP  RH WIND       PRES   REMARKS
CINC-COVINGTON FAIR      85  63  47 W5        30.07F
CINC-LUNKEN    FAIR      86  67  52 S5        30.05F
HAMILTON       FAIR      85  67  54 CALM      30.06F
DAYTON         PTSUNNY   81  68  64 SE10      30.08F
WRIGHT-PAT AFB FAIR      83  69  62 SE7       30.07F
DAYTON GENERAL FAIR      84  67  56 VRB7      30.07F
WILMINGTON     FAIR      80  70  71 VRB3      30.07F
$$

OHZ036-037-039>041-045>050-054>059-063>069-073>076-082>088-212000-
  CENTRAL AND SOUTHEAST OHIO

CITY           SKY/WX    TMP DP  RH WIND       PRES   REMARKS
COLUMBUS       PTSUNNY   79  64  60 SE6       30.09F
OSU AIRPORT    FAIR      79  65  62 SE12      30.09F
BOLTON FIELD   SUNNY     79  68  69 SE9       30.10F
RICKENBACK AFB FAIR      76  66  71 MISG      30.08F
NEWARK         FAIR      79  66  64 E12       30.10F
MARION         FAIR      80  61  52 S8        30.10F
LANCASTER      PTSUNNY   72  69  90 E3        30.11F
ZANESVILLE     LGT RAIN  76  65  68 CALM      30.11F
NEW PHILLY     NOT AVBL
$$



USA.gov is the U.S. government's official web portal to all federal, state and local government web resources and services.